This is the latest recevied weather packets stored in our database for station/object K0QED. If no packets are shown the sender has not sent any weather packets the latest 10 day(s).
| Time | Temp. | Humidity | Pressure | Rain* | Wind** | Luminosity | Snow |
|---|---|---|---|---|---|---|---|
| 1777718065 | 1.11° C | 49% | 1024.9 hPa | 0 mm | - | 0 W/m² | - |
| 1777717761 | 1.11° C | 49% | 1024.7 hPa | 0 mm | - | 0 W/m² | - |
| 1777717458 | 1.11° C | 49% | 1024.9 hPa | 0 mm | - | 0 W/m² | - |
| 1777717155 | 1.67° C | 49% | 1024.7 hPa | 0 mm | - | 0 W/m² | - |
| 1777716854 | 1.67° C | 49% | 1024.7 hPa | 0 mm | - | 0 W/m² | - |
| 1777716551 | 1.11° C | 48% | 1025 hPa | 0 mm | - | 0 W/m² | - |
| 1777716251 | 1.11° C | 49% | 1024.5 hPa | 0 mm | - | 0 W/m² | - |
| 1777715947 | 1.11° C | 50% | 1024.5 hPa | 0 mm | - | 0 W/m² | - |
| 1777715645 | 1.11° C | 51% | 1024.7 hPa | 0 mm | - | 0 W/m² | - |
| 1777715343 | 1.11° C | 50% | 1024.5 hPa | 0 mm | - | 0 W/m² | - |
| 1777715040 | 1.11° C | 50% | 1024.6 hPa | 0 mm | - | 0 W/m² | - |
| 1777714738 | 1.11° C | 50% | 1024.6 hPa | 0 mm | - | 0 W/m² | - |
| 1777714436 | 1.11° C | 51% | 1024.5 hPa | 0 mm | - | 0 W/m² | - |
| 1777714134 | 1.11° C | 52% | 1024.5 hPa | 0 mm | - | 0 W/m² | - |
| 1777713831 | 1.11° C | 50% | 1024.5 hPa | 0 mm | - | 0 W/m² | - |
| 1777713529 | 1.11° C | 51% | 1024.6 hPa | 0 mm | - | 0 W/m² | - |
| 1777713224 | 0.56° C | 55% | 1024.6 hPa | 0 mm | - | 0 W/m² | - |
| 1777712922 | 0° C | 54% | 1024.5 hPa | 0 mm | - | 0 W/m² | - |
| 1777712618 | 0.56° C | 55% | 1024.5 hPa | 0 mm | - | 0 W/m² | - |
| 1777712315 | 0.56° C | 54% | 1024.1 hPa | 0 mm | - | 0 W/m² | - |
| 1777712012 | 0.56° C | 53% | 1024.5 hPa | 0 mm | - | 0 W/m² | - |
| 1777711709 | 0.56° C | 53% | 1024.6 hPa | 0 mm | - | 0 W/m² | - |
| 1777711405 | 0° C | 54% | 1024.4 hPa | 0 mm | - | 0 W/m² | - |
| 1777711101 | 0° C | 55% | 1024.6 hPa | 0 mm | - | 0 W/m² | - |
| 1777710798 | 0.56° C | 55% | 1024.4 hPa | 0 mm | - | 0 W/m² | - |
* Rain latest hour (hover to see other rain measurements)
** Current wind speed in m/s (hover to see current wind gust speed)